Location: Morisset
(33.1080°S, 151.4871°E)
Time: 08:42:18
(UTC+00:00)

IRAS Rocket - Pass Details

Date: 29 October 2020
Orbit: 847 x 878 km, 100.1° (Epoch: 27 November)

Event Time Altitude Azimuth Distance (km) Brightness Sun altitude
Rises 17:01:16 0° 163° (SSE) 3,502 8.2 -22.5°
Reaches altitude 10° 17:03:42 10° 160° (SSE) 2,554 7.4 -22.1°
Maximum altitude 17:09:22 69° 76° (ENE) 940 4.5 -21.1°
Enters shadow 17:13:16 20° 357° (N) 1,888 5.7 -20.5°
